[[{"header":{"parameterUnit":"m.s-1","parameterCategory":1,"la1":30.2991,"la2":30.254,"lo1":-89.0895,"lo2":-89.0444,"dy":0.0017,"dx":0.0017,"nx":28,"ny":28,"refTime":"2023-10-14T09:00:00:Z","depth":0,"parameterNumber":2,"parameterNumberName":"U-component_of_WINDS"},"data":[0,0,0,0,0,0,0,0,0,0,0,0,0,0,0,0,0,0,0,0,0,0,0,0,0,0,0,0,0,0,0,0,0,0,0,0,0,0,0,0,0,0,0,0,0,0,0,0,0,0,0,0,0,0,0,0,0,0,3.2451,3.2453,0,3.2552,3.2553,3.2554,3.2504,3.2502,3.2499,3.2497,3.2603,3.2608,3.2613,0,0,0,0,0,0,0,0,0,0,0,0,0,3.2223,3.2228,3.2451,3.2453,3.2454,3.2551,3.2553,3.2554,3.2505,3.2502,3.2499,3.2496,3.2601,3.2607,3.2613,0,0,0,0,0,0,0,0,0,0,0,0,0,3.2323,3.2229,3.2451,3.2441,3.2441,3.2551,3.2553,3.2554,3.2506,3.2502,3.2498,3.2494,3.2599,3.2606,3.2614,3.2741,0,0,3.2638,3.2642,0,0,0,0,0,0,0,0,3.2317,3.2331,3.2441,3.2442,3.2442,3.2511,3.2511,3.2617,3.2507,3.2481,3.2497,3.2492,3.2576,3.2585,3.2613,3.2746,3.275,3.2639,3.2644,3.2647,3.2649,0,0,0,0,0,0,0,3.231,3.2327,3.2491,3.2443,3.2444,3.2433,3.2443,3.2531,3.2549,3.2483,3.248,3.2492,3.2575,3.2605,3.2615,3.2752,3.2639,3.2646,3.265,3.2654,3.2999,3.3003,0,0,0,0,0,0,3.2303,3.2321,3.2488,3.2494,3.2369,3.2441,3.2452,3.2493,3.2548,3.2553,3.2495,3.2489,3.2594,3.2606,3.2618,3.2773,3.2647,3.2654,3.2659,3.2995,3.3,3.3005,0,0,0,0,0,0,3.2299,3.2319,3.2484,3.2407,3.2427,3.2449,3.2496,3.2497,3.2527,3.2557,3.2561,3.2522,3.2591,3.2607,3.2712,3.2776,3.2658,3.2665,3.2989,3.2996,3.3003,3.3083,0,0,0,0,0,0,3.2292,3.2317,3.2364,3.2408,3.2431,3.2574,3.25,3.2502,3.254,3.2534,3.2583,3.2588,3.2589,3.27,3.2719,3.2785,3.2671,3.2984,3.2993,3.3,3.3074,3.3091,3.3106,0,0,0,0,0,3.2284,3.2382,3.2367,3.2387,3.249,3.2578,3.2591,3.2589,3.2546,3.2594,3.2614,3.2586,3.2766,3.2711,3.2732,3.2801,3.298,3.299,3.3,3.3067,3.3088,3.3105,0,0,0,0,0,0,3.2345,3.2388,3.2371,3.2485,3.2529,3.2569,3.263,3.2611,3.2667,3.2659,3.2656,3.2667,3.2777,3.2799,3.2737,3.2929,3.2866,3.2881,3.2911,3.293,3.2946,3.2939,3.2678,0,0,0,0,0,3.2372,3.2438,3.2472,3.257,3.2593,3.2608,3.2646,3.2641,3.2686,3.2704,3.2731,3.2777,3.2844,3.2888,3.2951,3.3077,3.309,3.3136,3.3151,3.3164,3.3177,3.325,3.3272,3.3038,3.3038,3.3038,0,0,3.2427,3.2459,3.2501,3.2583,3.2616,3.2687,3.2623,3.27,3.2754,3.2716,3.2817,3.2839,3.289,3.3007,3.306,3.3029,3.3245,3.3177,3.3187,3.3193,3.3263,3.3285,3.3305,3.3045,3.3044,3.3043,0,0,3.2566,3.2595,3.2682,3.2717,3.2767,3.2777,3.2798,3.2843,3.2856,3.2957,3.2932,3.2996,3.3111,3.3149,3.3184,3.3342,3.332,3.3363,3.3445,3.3516,3.3534,3.3551,3.361,3.3631,3.3375,3.3376,3.3376,0,3.2629,3.2733,3.2729,3.2809,3.2848,3.2817,3.2907,3.2941,3.301,3.3039,3.3003,3.3149,3.3181,3.3308,3.3347,3.3375,3.3402,3.3357,3.3532,3.3548,3.3563,3.362,3.3642,3.3381,3.338,3.338,3.3379,0,3.2811,3.2884,3.2948,3.3016,3.3062,3.3146,3.3157,3.3205,3.3197,3.3212,3.3318,3.3356,3.3428,3.3457,3.345,3.3586,3.3565,3.3531,3.3468,3.3591,3.3645,3.3666,3.3388,3.3386,3.3385,3.3383,0,0,3.2989,3.3055,3.3079,3.3112,3.3167,3.3224,3.3309,3.3379,3.3422,3.3471,3.3545,3.3644,3.3614,3.3653,3.3651,3.3713,3.384,3.3671,3.3672,3.3704,3.3996,3.4023,3.4048,3.3825,3.3829,3.3832,3.3993,0,3.3133,3.328,3.3281,3.3418,3.3488,3.3462,3.3536,3.358,3.3597,3.366,3.3679,3.3751,3.3704,3.3728,3.3788,3.3811,3.3899,3.38,3.3896,3.39,3.3886,3.4075,3.4103,3.4252,3.4013,3.4016,3.4019,0,3.3321,3.3378,3.3522,3.3571,3.36,3.3666,3.3733,3.3793,3.3843,3.3852,3.3898,3.3887,3.3977,3.391,3.4036,3.3969,3.4008,3.4026,3.4032,3.4042,3.3968,3.4093,3.4299,3.4323,3.4051,3.4049,3.4046,0,3.344,3.3552,3.3654,3.3682,3.3741,3.3789,3.3816,3.3862,3.3906,3.3965,3.3994,3.4062,3.41,3.4155,3.4164,3.4114,3.4292,3.4225,3.4304,3.4304,3.4343,3.4341,3.4561,3.4365,3.4365,3.4364,3.4364,0,3.3603,3.3693,3.3709,3.3772,3.3873,3.3874,3.3975,3.3998,3.4041,3.4109,3.4091,3.4156,3.4163,3.4232,3.424,3.4345,3.4361,3.4373,3.4374,3.4376,3.4375,3.4403,3.4394,3.437,3.4369,3.4368,3.4367,0,3.3754,3.3767,3.3877,3.3925,3.3939,3.4012,3.4053,3.4115,3.4131,3.4219,3.424,3.4265,3.4345,3.436,3.4454,3.4459,3.4586,3.4575,3.4569,3.4568,3.4647,3.4641,3.4895,3.493,3.4709,3.4711,3.4713,0,3.3857,3.3926,3.3982,3.4026,3.4056,3.4128,3.4173,3.4177,3.4225,3.429,3.4345,3.4423,3.4486,3.4615,3.4644,3.4717,3.471,3.4794,3.4721,3.4721,3.4715,3.4712,3.472,3.4808,3.4811,3.4813,3.4814,0,3.4041,3.4046,3.411,3.4179,3.4234,3.4288,3.434,3.4378,3.439,3.4445,3.4527,3.4576,3.4673,3.4752,3.4825,3.4855,3.4839,3.4837,3.486,3.4863,3.4858,3.4865,3.461,3.4832,3.483,3.4829,3.4828,3.4827,3.4174,3.4235,3.4285,3.4359,3.4399,3.4448,3.4509,3.4534,3.4602,3.4681,3.468,3.4771,3.4823,3.492,3.4955,3.5028,3.5001,3.5033,3.5042,3.505,3.5059,3.4845,3.5041,3.504,3.504,3.5039,3.5039,0,3.4359,3.439,3.4459,3.4532,3.4592,3.4569,3.4627,3.4678,3.4758,3.4808,3.4871,3.4967,3.5044,3.508,3.5157,3.5209,3.5203,3.5229,3.5227,3.5235,3.5077,3.5051,3.5233,3.5232,3.5232,3.5232,3.5232,3.5232,3.4463,3.4567,3.4578,3.4703,3.4734,3.4822,3.4857,3.4904,3.4945,3.5053,3.5117,3.5139,3.5185,3.5266,3.5337,3.5346,3.5377,3.5407,3.5412,3.5265,3.5245,3.5226,3.5202,3.5413,3.5413,3.5564,3.5566,3.5567]},{"header":{"parameterUnit":"m.s-1","parameterCategory":1,"la1":30.2991,"la2":30.254,"lo1":-89.0895,"lo2":-89.0444,"dy":0.0017,"dx":0.0017,"nx":28,"ny":28,"refTime":"2023-10-14T09:00:00:Z","depth":0,"parameterNumber":3,"parameterNumberName":"V-component_of_WINDS"},"data":[0,0,0,0,0,0,0,0,0,0,0,0,0,0,0,0,0,0,0,0,0,0,0,0,0,0,0,0,0,0,0,0,0,0,0,0,0,0,0,0,0,0,0,0,0,0,0,0,0,0,0,0,0,0,0,0,0,0,-3.1208,-3.1208,0,-3.1181,-3.1181,-3.1181,-3.1141,-3.1141,-3.114,-3.1139,-3.1111,-3.1111,-3.1111,0,0,0,0,0,0,0,0,0,0,0,0,0,-3.1225,-3.1225,-3.1208,-3.1208,-3.1208,-3.1181,-3.1181,-3.1181,-3.1141,-3.1141,-3.114,-3.1139,-3.1111,-3.1111,-3.1111,0,0,0,0,0,0,0,0,0,0,0,0,0,-3.121,-3.1225,-3.1208,-3.1185,-3.1182,-3.1182,-3.1181,-3.1181,-3.1142,-3.1141,-3.114,-3.1139,-3.1111,-3.1111,-3.111,-3.113,0,0,-3.111,-3.111,0,0,0,0,0,0,0,0,-3.1211,-3.1209,-3.1189,-3.1186,-3.1184,-3.1164,-3.1176,-3.1164,-3.1142,-3.1157,-3.1139,-3.1138,-3.1129,-3.1127,-3.1125,-3.1129,-3.1127,-3.111,-3.111,-3.111,-3.111,0,0,0,0,0,0,0,-3.1212,-3.121,-3.1198,-3.1188,-3.1185,-3.1176,-3.1172,-3.1174,-3.1149,-3.1156,-3.1153,-3.115,-3.1128,-3.1125,-3.1124,-3.1127,-3.111,-3.111,-3.111,-3.111,-3.1146,-3.1147,0,0,0,0,0,0,-3.1217,-3.1211,-3.1198,-3.1197,-3.1195,-3.1176,-3.1172,-3.1171,-3.1149,-3.1145,-3.1151,-3.1148,-3.1126,-3.1124,-3.1122,-3.1144,-3.111,-3.111,-3.1109,-3.1145,-3.1146,-3.1148,0,0,0,0,0,0,-3.1217,-3.1216,-3.12,-3.1203,-3.12,-3.1177,-3.1176,-3.1171,-3.1168,-3.1146,-3.1141,-3.1153,-3.1125,-3.1123,-3.1129,-3.1143,-3.1109,-3.1109,-3.1144,-3.1146,-3.1147,-3.1188,0,0,0,0,0,0,-3.1218,-3.1216,-3.1223,-3.1204,-3.12,-3.1206,-3.1177,-3.1171,-3.1168,-3.1165,-3.1146,-3.1142,-3.1124,-3.1129,-3.1128,-3.1142,-3.1109,-3.1143,-3.1145,-3.1147,-3.1185,-3.119,-3.1195,0,0,0,0,0,-3.1218,-3.1236,-3.1224,-3.1223,-3.1209,-3.1207,-3.1205,-3.1184,-3.117,-3.1177,-3.1162,-3.1143,-3.1141,-3.113,-3.1129,-3.1142,-3.1142,-3.1144,-3.1146,-3.1183,-3.1189,-3.1195,0,0,0,0,0,0,-3.1257,-3.1233,-3.1219,-3.1231,-3.1222,-3.1201,-3.1209,-3.1192,-3.1187,-3.1183,-3.1157,-3.1153,-3.1163,-3.1153,-3.1141,-3.116,-3.1138,-3.1141,-3.1166,-3.1172,-3.1177,-3.118,-3.1109,0,0,0,0,0,-3.1267,-3.1268,-3.1246,-3.1258,-3.1254,-3.1233,-3.1231,-3.1216,-3.1205,-3.1201,-3.1187,-3.1177,-3.1174,-3.1173,-3.1169,-3.1183,-3.1179,-3.1192,-3.1197,-3.1202,-3.1204,-3.1211,-3.1217,-3.1156,-3.1156,-3.1156,0,0,-3.1287,-3.1274,-3.1276,-3.1266,-3.1257,-3.1258,-3.1229,-3.1232,-3.1233,-3.1201,-3.1206,-3.1195,-3.1182,-3.1193,-3.1197,-3.1185,-3.122,-3.1205,-3.1208,-3.1208,-3.1214,-3.122,-3.1225,-3.1157,-3.1157,-3.1157,0,0,-3.1325,-3.1315,-3.1324,-3.1316,-3.1303,-3.1288,-3.1291,-3.1273,-3.1264,-3.1269,-3.1245,-3.1246,-3.1242,-3.1234,-3.1229,-3.1265,-3.1246,-3.1264,-3.1291,-3.1298,-3.1303,-3.1307,-3.132,-3.1325,-3.1266,-3.1267,-3.1267,0,-3.1352,-3.1353,-3.1331,-3.1335,-3.1331,-3.1303,-3.1312,-3.1305,-3.1292,-3.129,-3.1277,-3.1272,-3.1261,-3.1269,-3.1278,-3.1275,-3.1277,-3.1266,-3.1304,-3.1308,-3.1311,-3.1323,-3.1328,-3.1269,-3.1269,-3.1268,-3.1268,0,-3.1387,-3.1388,-3.1397,-3.1385,-3.1382,-3.1389,-3.1368,-3.1368,-3.1353,-3.134,-3.1345,-3.1332,-3.1325,-3.1326,-3.1311,-3.1332,-3.1325,-3.1309,-3.1286,-3.132,-3.1331,-3.1335,-3.1272,-3.1271,-3.1271,-3.127,0,0,-3.1447,-3.1424,-3.1427,-3.1422,-3.1406,-3.1406,-3.1412,-3.1406,-3.1406,-3.1398,-3.1402,-3.1399,-3.1384,-3.1379,-3.1363,-3.137,-3.1399,-3.1352,-3.1352,-3.1362,-3.1422,-3.1435,-3.144,-3.1387,-3.1388,-3.1389,-3.1423,0,-3.1482,-3.149,-3.1471,-3.1484,-3.1485,-3.1459,-3.1463,-3.1454,-3.1442,-3.1441,-3.1428,-3.1427,-3.1406,-3.1403,-3.1409,-3.1395,-3.1411,-3.1392,-3.1391,-3.1391,-3.1395,-3.1446,-3.1459,-3.1492,-3.1427,-3.1428,-3.1428,0,-3.1523,-3.1518,-3.1531,-3.1515,-3.1514,-3.1519,-3.1512,-3.1511,-3.15,-3.1491,-3.1486,-3.1468,-3.1472,-3.1451,-3.1456,-3.1444,-3.1442,-3.1435,-3.1436,-3.1435,-3.1412,-3.1446,-3.1502,-3.1507,-3.1435,-3.1434,-3.1434,0,-3.1566,-3.1562,-3.157,-3.1566,-3.1547,-3.1551,-3.1543,-3.1531,-3.1529,-3.1523,-3.1521,-3.1515,-3.1512,-3.1508,-3.1489,-3.1475,-3.1497,-3.1474,-3.149,-3.149,-3.1495,-3.1495,-3.1552,-3.1494,-3.1494,-3.1494,-3.1494,0,-3.1607,-3.1616,-3.1589,-3.1594,-3.1603,-3.1581,-3.1591,-3.1581,-3.157,-3.1572,-3.1549,-3.1552,-3.1526,-3.1526,-3.1511,-3.1518,-3.1517,-3.151,-3.1505,-3.1512,-3.1513,-3.151,-3.1507,-3.1496,-3.1495,-3.1495,-3.1495,0,-3.1657,-3.1639,-3.1645,-3.1627,-3.1623,-3.1631,-3.1615,-3.1619,-3.1605,-3.1609,-3.1608,-3.1587,-3.1586,-3.1566,-3.1561,-3.1551,-3.1564,-3.1555,-3.1568,-3.1565,-3.1582,-3.158,-3.1639,-3.1645,-3.1584,-3.1584,-3.1585,0,-3.1684,-3.1691,-3.1673,-3.1673,-3.1667,-3.1667,-3.1665,-3.1643,-3.1642,-3.163,-3.1635,-3.1632,-3.1628,-3.1627,-3.1611,-3.1607,-3.1598,-3.1619,-3.1597,-3.1603,-3.1598,-3.1598,-3.1599,-3.1623,-3.1624,-3.1625,-3.1625,0,-3.1734,-3.1725,-3.1723,-3.1718,-3.1716,-3.1711,-3.1704,-3.1705,-3.1682,-3.1681,-3.168,-3.1677,-3.1671,-3.1668,-3.1661,-3.1653,-3.1635,-3.1632,-3.1636,-3.1642,-3.1649,-3.1646,-3.158,-3.1631,-3.163,-3.163,-3.163,-3.1629,-3.1774,-3.1778,-3.1767,-3.1766,-3.1758,-3.1753,-3.1756,-3.1743,-3.1741,-3.1735,-3.1723,-3.1723,-3.1712,-3.1701,-3.1694,-3.1695,-3.1684,-3.1689,-3.169,-3.1692,-3.1695,-3.1649,-3.1693,-3.1693,-3.1693,-3.1693,-3.1692,0,-3.1823,-3.1815,-3.1813,-3.1805,-3.1804,-3.1788,-3.178,-3.178,-3.1781,-3.1772,-3.1769,-3.1768,-3.1765,-3.1749,-3.1745,-3.1748,-3.174,-3.1747,-3.1747,-3.1746,-3.1705,-3.1702,-3.1754,-3.1754,-3.1754,-3.1754,-3.1754,-3.1754,-3.1848,-3.1856,-3.1846,-3.1849,-3.1841,-3.1841,-3.1838,-3.1833,-3.1826,-3.1826,-3.1823,-3.1813,-3.1802,-3.1797,-3.1794,-3.1789,-3.1789,-3.1799,-3.1792,-3.1754,-3.1748,-3.1743,-3.174,-3.1799,-3.1799,-3.1833,-3.1833,-3.1833]}]]